Weather History for Annette Island, AK

Change the Weather History Date:

Wednesday, February 13, 2013

  Actual Average Record
Temperature  
Mean Temperature 37 °F 38 °F  
Max Temperature 41 °F 43 °F 57 °F (2004)
Min Temperature 32 °F 33 °F 4 °F (1956)
Degree Days  
Heating Degree Days 28 27  
Month to date heating degree days 322 354  
Since 1 July heating degree days 4145 4133  
Cooling Degree Days 0    
Month to date cooling degree days 0  
Year to date cooling degree days 0  
Moisture  
Dew Point 34 °F    
Average Humidity 0    
Maximum Humidity 0    
Minimum Humidity 0    
Precipitation  
Precipitation 0.01 in 0.26 in 1.87 in (1985)
Month to date precipitation 5.31 3.62  
Year to date precipitation 13.51 14.35  
Snow  
Snow 0.00 in 0.30 in 3.50 in (1974)
Month to date snowfall 0.0 3.3  
Since 1 July snowfall 11.9 22.6  
Snow Depth 0.00 in    
Sea Level Pressure  
Sea Level Pressure 30.28 in    
Wind  
Wind Speed 6 mph (ESE)    
Max Wind Speed 18 mph    
Max Gust Speed 24 mph    
Visibility 10 miles    
Events Rain    
T = Trace of Precipitation, MM = Missing Value Source: NWS Daily Summary

Daily Weather History Graph

Daily Weather History Graph

Search for Another Location

Airport:

Trip Planner

Search our weather history database for the weather conditions in past years. The results will help you decide how hot, cold, wet, or windy it might be!

Date:

Astronomy

Feb. 13, 2013 Rise Set
Actual Time 7:12 AM AKST 4:49 PM AKST
Civil Twilight 6:34 AM AKST 5:27 PM AKST
Nautical Twilight 5:51 AM AKST 6:10 PM AKST
Astronomical Twilight 5:09 AM AKST 6:52 PM AKST
Moon 7:58 AM AKST (2/13) 9:52 PM AKST (2/13)
Length of Visible Light 10h 53m
Length of Day
9h 37m
Waxing Crescent, 15% of the Moon is Illuminated
Feb 13
Waxing Crescent
Feb 17
First Quarter
Feb 25
Full
Mar 4
Last Quarter
Mar 11
New

Hourly Weather History & Observations

Time (AKST) Temp. Windchill Dew Point Humidity Pressure Visibility Wind Dir Wind Speed Gust Speed Precip Events Conditions
12:53 AM 37.0 °F - 30.9 °F 79% 30.23 in 10.0 mi Calm Calm - N/A   Overcast
1:53 AM 36.0 °F - 33.1 °F 89% 30.25 in 10.0 mi Calm Calm - N/A   Overcast
3:53 AM 36.0 °F - 33.1 °F 89% 30.27 in 10.0 mi Calm Calm - 0.00 in   Overcast
4:53 AM 36.0 °F - 33.1 °F 89% 30.28 in 10.0 mi Calm Calm - N/A   Overcast
5:53 AM 34.0 °F - 33.1 °F 96% 30.27 in 10.0 mi Calm Calm - N/A   Partly Cloudy
6:53 AM 32.0 °F - 30.9 °F 96% 30.28 in 10.0 mi Calm Calm - N/A   Scattered Clouds
7:53 AM 33.1 °F - 32.0 °F 96% 30.30 in 10.0 mi Calm Calm - N/A   Mostly Cloudy
8:53 AM 35.1 °F - 33.1 °F 92% 30.31 in 10.0 mi Calm Calm - N/A   Mostly Cloudy
9:53 AM 37.9 °F - 35.1 °F 89% 30.32 in 10.0 mi Calm Calm - N/A   Overcast
10:53 AM 39.9 °F 35.1 °F 35.1 °F 83% 30.33 in 10.0 mi ESE 6.9 mph - 0.00 in Rain Light Rain
11:53 AM 41.0 °F 35.2 °F 35.1 °F 79% 30.32 in 10.0 mi SE 9.2 mph - 0.00 in   Mostly Cloudy
12:53 PM 39.0 °F 32.3 °F 36.0 °F 89% 30.32 in 6.0 mi ESE 10.4 mph - 0.01 in Rain Light Rain
1:01 PM 39.2 °F 33.6 °F 37.4 °F 93% 30.31 in 10.0 mi ESE 8.1 mph - 0.00 in Rain Light Rain
1:53 PM 39.9 °F 34.5 °F 37.0 °F 89% 30.32 in 10.0 mi ESE 8.1 mph - 0.00 in Rain Light Rain
2:53 PM 39.9 °F 34.5 °F 36.0 °F 86% 30.30 in 10.0 mi ESE 8.1 mph - 0.00 in   Mostly Cloudy
3:11 PM 39.2 °F 32.5 °F 35.6 °F 87% 30.29 in 10.0 mi ESE 10.4 mph - N/A   Mostly Cloudy
3:19 PM 39.2 °F 32.5 °F 35.6 °F 87% 30.28 in 10.0 mi ESE 10.4 mph - N/A   Mostly Cloudy
3:53 PM 39.9 °F 35.1 °F 35.1 °F 83% 30.29 in 10.0 mi ESE 6.9 mph - N/A   Mostly Cloudy
4:53 PM 39.9 °F 33.4 °F 35.1 °F 83% 30.28 in 10.0 mi ESE 10.4 mph - N/A   Overcast
5:53 PM 41.0 °F 35.8 °F 32.0 °F 70% 30.28 in 10.0 mi ESE 8.1 mph - N/A   Overcast
6:53 PM 41.0 °F 35.2 °F 30.9 °F 67% 30.27 in 10.0 mi ESE 9.2 mph 16.1 mph N/A   Overcast
7:53 PM 39.9 °F 34.5 °F 32.0 °F 73% 30.26 in 10.0 mi ESE 8.1 mph 19.6 mph 0.00 in   Overcast
8:24 PM 39.2 °F 31.6 °F 33.8 °F 81% 30.25 in 10.0 mi SE 12.7 mph 20.7 mph N/A   Overcast
8:53 PM 39.9 °F 31.1 °F 32.0 °F 73% 30.25 in 10.0 mi SE 17.3 mph 24.2 mph N/A   Overcast
9:43 PM 39.2 °F 32.5 °F 32.0 °F 75% 30.23 in 10.0 mi ESE 10.4 mph 19.6 mph N/A   Overcast
9:50 PM 39.2 °F 32.5 °F 32.0 °F 75% 30.23 in 10.0 mi ESE 10.4 mph 23.0 mph N/A   Overcast
9:53 PM 39.9 °F 33.9 °F 32.0 °F 73% 30.24 in 10.0 mi ESE 9.2 mph 23.0 mph N/A   Overcast
10:53 PM 39.9 °F 32.5 °F 33.1 °F 77% 30.24 in 10.0 mi ESE 12.7 mph - 0.00 in   Overcast
11:53 PM 39.9 °F 32.1 °F 34.0 °F 79% 30.23 in 10.0 mi SE 13.8 mph 23.0 mph N/A   Overcast